Home > Weather > Knarrevik/Straume > Past weeks

Flag for Norway Weather for the Past 2 Weeks in Knarrevik/Straume, Norway

Now
47 °F

Overcast.


Feels Like: 42 °F
Forecast: 44 / 48 °F
Wind: 12 mph from South

Location: Bergen / Flesland

Current Time: May 1, 2016 at 2:30:50 PM

Latest Report: May 1, 2016 at 1:00 PM


Visibility: 25 mi

Pressure: 30.17 "Hg

Humidity: 55%

Dew Point: 32 °F

Location of Knarrevik/StraumeLocation

Historic Weather in Knarrevik/Straume — Graph

°F

Knarrevik/Straume Temperature Yesterday

Maximum temperature yesterday: 52 °F (at 2:00 PM)
Minimum temperature yesterday: 40 °F (at 1:00 AM)
Average temperature yesterday: 46 °F

High & Low Weather Summary for the Past Weeks

 TemperatureHumidityPressure
High52 °F (Apr 30, 2:00 PM)96% (Apr 17, 11:00 PM)30.39 "Hg (Apr 17, 11:00 PM)
Low30 °F (Apr 24, 5:00 AM)23% (Apr 26, 4:00 PM)29.41 "Hg (Apr 18, 5:00 PM)
Average43 °F65%29.88 "Hg
* Reported Apr 16 1:00 PM — May 1 1:00 PM, Knarrevik/Straume, Weather by CustomWeather, © 2016

Note: Actual official high and low records may vary slightly from our data, if they occured in-between our weather recording intervals... More about our weather records

Advertising

Knarrevik/Straume Weather History for the Previous 24 Hours

Scroll right to see more
 ConditionsComfort  
Time TempWeatherWind HumidityBarometerVisibility
1:00 PM
Sun, May 1
47 °FOvercast.12 mph55%30.17 "Hg25 mi
12:00 PM46 °FOvercast.12 mph64%30.19 "Hg25 mi
11:00 AM45 °FPartly sunny.10 mph70%30.19 "Hg25 mi
10:00 AM44 °FScattered clouds.9 mph75%30.19 "Hg22 mi
9:00 AM43 °FScattered clouds.7 mph87%30.19 "Hg25 mi
8:00 AM41 °FRain showers. Overcast.6 mph87%30.19 "Hg25 mi
7:00 AM42 °FOvercast.6 mph83%30.18 "Hg25 mi
6:00 AM39 °FSunny.5 mph87%30.18 "Hg31 mi
5:00 AM40 °FOvercast.5 mph84%30.17 "Hg31 mi
2:00 AM41 °FOvercast.3 mph87%30.14 "Hg31 mi
12:00 AM42 °FRain showers. Overcast.No wind83%30.12 "Hg28 mi
11:00 PM
Sat, Apr 30
42 °FOvercast.3 mph81%30.12 "Hg31 mi
10:00 PM43 °FOvercast.3 mph76%30.09 "Hg31 mi
9:00 PM46 °FOvercast.1 mph61%30.06 "Hg31 mi
8:00 PM46 °FScattered clouds.2 mph58%30.05 "Hg31 mi
7:00 PM47 °FPartly sunny.5 mph54%30.05 "Hg28 mi
6:00 PM48 °FOvercast.6 mph53%30.03 "Hg31 mi
5:00 PM49 °FOvercast.3 mph47%30.02 "Hg28 mi
4:00 PM49 °FOvercast.6 mph46%30.00 "Hg25 mi
3:00 PM50 °FOvercast.7 mph41%29.99 "Hg28 mi
2:00 PM52 °FOvercast.5 mph34%29.97 "Hg22 mi
Weather by CustomWeather, © 2016

See weather overviewHow to use our weather pages